Location: Carabito
(9.8355°N, 67.9249°W)
Time: 23:48:00
(UTC+00:00)

Okean 1 Rocket - Pass Details

Date: 23 May 2024
Orbit: 602 x 632 km, 82.5° (Epoch: 15 June)

Event Time Altitude Azimuth Distance (km) Brightness Sun altitude
Rises 08:15:30 0° 355° (N) 2,840 6.8 -26.4°
Reaches altitude 10° 08:17:42 10° 355° (N) 1,938 5.9 -26.0°
Enters shadow 08:21:01 54° 351° (N) 736 3.4 -25.2°
